Harbin Taiping International Airport

Airport
ICAO code: 
ZYHB
IATA Code: 
HRB
Summary
ICAO Region: 
APAC
Territory: 
Location: 
Harbin, Heilongjiang
Serving: 
Harbin
Elevation: 
457 ft
Coordinates: 
Aerial View: 
45° 37' 24.251" N, 126° 15' 1.181" E
Metar
Observation
ZYHB 190800Z 31002MPS 260V340 CAVOK M18/M24 Q1033 NOSIG
Station
Harbin
Date/Time
2022-01-19 08:00:00
Wind direction
310°
Lowest cloud amount
clouds and visibility OK
Temperature
-18°C
Dew point
-24°C
Humidity
59%
QNH
1033 hPa
Weather condition
n/a

Description

Harbin Taiping International Airport is the international airport serving the city of and region around Harbin, Heilongjiang, China.

Climatology

Within the Köppen Climate Classification System, (Köppen climate classification Dwb) moist continental mid-latitude climates have warm to cool summers and cold winters. The location of this Köppen climate type is pole ward of the C climates. The average temperature of the warmest month is greater than 10°C (50°F), while the coldest month is less than -3°C (27°F). Winters are severe with snowstorms, strong winds, and bitter cold from Continental Polar or Arctic air masses. Average temperature of the coldest month is -3°C (27°F) or lower. Average temperature of the warmest month is greater than 10°C (50°F). Precipitation is equally spread across the year.

Runways

Designator Length Width Surface Rops
5/23 3200 45 ASP Yes/Yes
Airport map: 
Aerial View: 

SKYbrary Partners:

Safety knowledge contributed by: